Home   Weather   Porto   Past weeks
Flag for Portugal

Past Weather in Porto, Portugal — Yesterday and Last 2 Weeks

Now
57 °F

Passing clouds.


Feels Like: 55 °F
Forecast: 63 / 55 °F
Wind: 9 mph from North

Location: Porto / Pedras Rubras

Current Time: Oct 17, 2019 at 8:00:17 pm

Latest Report: Oct 17, 2019 at 7:30 pm


Visibility: N/A

Pressure: 30.01 "Hg

Humidity: 100%

Dew Point: 57 °F

Location of PortoLocation

Past Weather in Porto — Graph

°F

Porto Temperature Yesterday

Maximum temperature yesterday: 64 °F (at 1:00 pm)
Minimum temperature yesterday: 59 °F (at 2:30 am)
Average temperature yesterday: 61 °F

High & Low Weather Summary for the Past Weeks

 TemperatureHumidityPressure
High75 °F (Oct 10, 1:30 pm)100% (Oct 2, 11:30 pm)30.21 "Hg (Oct 2, 11:30 pm)
Low48 °F (Oct 10, 6:00 am)41% (Oct 10, 1:30 pm)29.77 "Hg (Oct 14, 5:30 am)
Average61 °F85%30.06 "Hg
* Reported Oct 2 6:00 pm — Oct 17 6:30 pm, Porto. Weather by CustomWeather, © 2019

Note: Actual official high and low records may vary slightly from our data, if they occured in-between our weather recording intervals... More about our weather records

Advertising

Porto Weather History for the Previous 24 Hours

Scroll right to see more
 ConditionsComfort  
Time TempWeatherWind HumidityBarometerVisibility
6:30 pm
Thu, Oct 17
59 °FMore clouds than sun.13 mph94%30.01 "Hg5 mi
6:00 pm59 °FDrizzle. Fog.8 mph100%29.98 "Hg3 mi
5:30 pm61 °FDrizzle. Fog.8 mph100%29.98 "Hg3 mi
5:00 pm63 °FDrizzle. Fog.5 mph94%29.98 "Hg1 mi
3:30 pm63 °FBroken clouds.5 mph94%29.98 "HgN/A
3:00 pm64 °FDrizzle. Cloudy.6 mph88%30.01 "Hg4 mi
2:30 pm66 °FBroken clouds.7 mph83%30.01 "HgN/A
2:00 pm66 °FBroken clouds.7 mph83%30.01 "HgN/A
1:30 pm66 °FBroken clouds.10 mph83%30.01 "HgN/A
1:00 pm66 °FBroken clouds.8 mph83%30.04 "HgN/A
12:30 pm66 °FBroken clouds.8 mph83%30.04 "HgN/A
12:00 pm66 °FBroken clouds.9 mph83%30.04 "HgN/A
11:30 am66 °FBroken clouds.7 mph88%30.04 "HgN/A
11:00 am66 °FBroken clouds.5 mph88%30.04 "HgN/A
10:30 am64 °FBroken clouds.3 mph94%30.04 "HgN/A
10:00 am63 °FBroken clouds.1 mph100%30.04 "HgN/A
9:30 am63 °FBroken clouds.1 mph100%30.04 "HgN/A
9:00 am63 °FBroken clouds.No wind100%30.01 "HgN/A
8:30 am63 °FFog.No wind94%30.01 "Hg3 mi
8:00 am63 °FFog.No wind94%30.01 "Hg2 mi
7:30 am63 °FSprinkles. Partly cloudy.3 mph100%29.98 "Hg4 mi
7:00 am63 °FFog.2 mph100%29.98 "Hg3 mi
6:30 am63 °FFog.5 mph100%29.98 "Hg3 mi
6:00 am63 °FFog.3 mph100%29.98 "Hg2 mi
5:30 am63 °FPassing clouds.2 mph100%29.95 "Hg4 mi
5:00 am63 °FPassing clouds.2 mph100%29.95 "Hg5 mi
4:30 am63 °FPassing clouds.5 mph100%29.95 "Hg6 mi
3:30 am63 °FFog.5 mph100%29.95 "Hg3 mi
3:00 am63 °FPassing clouds.7 mph94%29.95 "Hg4 mi
2:30 am63 °FDrizzle. Fog.12 mph94%29.95 "Hg3 mi
2:00 am63 °FPassing clouds.17 mph94%29.95 "HgN/A
1:30 am61 °FSprinkles. Passing clouds.18 mph100%29.95 "Hg5 mi
1:00 am61 °FMostly cloudy.17 mph100%29.95 "Hg6 mi
12:30 am61 °FSprinkles. Passing clouds.18 mph100%29.95 "Hg4 mi
12:00 am61 °FSprinkles. Low clouds.20 mph94%29.95 "Hg6 mi
11:30 pm
Wed, Oct 16
61 °FPassing clouds.8 mph100%29.95 "HgN/A
11:00 pm61 °FDrizzle. Fog.18 mph94%29.98 "Hg3 mi
10:30 pm61 °FDrizzle. Fog.21 mph100%29.95 "Hg3 mi
10:00 pm61 °FPassing clouds.25 mph100%29.95 "Hg5 mi
9:30 pm61 °FDrizzle. Fog.23 mph94%29.95 "Hg3 mi
9:00 pm61 °FDrizzle. Fog.23 mph94%29.95 "Hg2 mi
8:30 pm61 °FDrizzle. Fog.25 mph94%29.98 "Hg2 mi
8:00 pm61 °FDrizzle. Overcast.26 mph94%29.98 "Hg4 mi
Weather by CustomWeather, © 2019

See weather overview